Flag for U.S.A. Weather past 2 weeks in Idaho Falls, Idaho, U.S.A.

Now
44 °F

Passing clouds.


Feels Like: 40 °F
Forecast: 42 / 55 °F
Wind: 8 mph from Southwest

Location: Fanning Field


UV Index: 0 (Low)

Visibility: 10 mi


Pressure: 29.85 "Hg

Humidity: 76%

Dew point: 37 °F

Location of Idaho FallsLocation

Historic Weather in Idaho Falls

°F

Idaho Falls temperature yesterday

Maximum temperature yesterday: 56 °F (at 5:53 PM)
Minimum temperature yesterday: 34 °F (at 2:53 AM)
Average temperature yesterday: 45 °F

Past Weeks' High & Low Weather Summary

 TemperatureHumidityPressure
High70 °F (Apr 21, 4:53 PM)89% (Apr 18, 7:53 AM)30.42 "Hg (Apr 18, 7:53 AM)
Low17 °F (Apr 14, 6:53 AM)13% (Apr 21, 4:53 PM)29.44 "Hg (Apr 22, 1:53 PM)
Average48 °F43%29.94 "Hg
* Reported Apr 10 12:53 AM — Apr 25 12:53 AM, Idaho Falls, Weather by CustomWeather, © 2014

Note: Actual official high and low records may vary slightly from our data, if they occured in-between our weather recording intervals... More about our weather records

Advertising

Historic Weather Conditions — Data for Previous 24 hours

 ConditionsComfort  
Time TempWeatherWind HumidityBarometerVisibility
12:53 AM
Apr 25
47 °FClear.8 mph64%29.86 "Hg10 mi
11:53 PM
Apr 24
46 °FClear.13 mph71%29.85 "Hg10 mi
10:53 PM45 °FPassing clouds.15 mph74%29.88 "Hg10 mi
9:53 PM46 °FBroken clouds.17 mph73%29.89 "Hg10 mi
8:53 PM52 °FPartly sunny.16 mph53%29.86 "Hg10 mi
7:53 PM53 °FSunny.15 mph51%29.87 "Hg10 mi
6:53 PM55 °FSunny.22 mph45%29.88 "Hg10 mi
5:53 PM56 °FScattered clouds.21 mph46%29.88 "Hg10 mi
4:53 PM53 °FBroken clouds.22 mph51%29.91 "Hg10 mi
3:53 PM51 °FCloudy.23 mph54%29.94 "Hg10 mi
2:53 PM51 °FBroken clouds.24 mph59%29.95 "Hg10 mi
1:53 PM48 °FCloudy.25 mph63%29.97 "Hg10 mi
12:53 PM47 °FLight rain. Mostly cloudy.23 mph66%29.97 "Hg10 mi
11:53 AM50 °FLight rain. Overcast.24 mph46%29.96 "Hg10 mi
10:53 AM51 °FMostly cloudy.25 mph36%29.94 "Hg10 mi
9:53 AM49 °FPartly sunny.15 mph41%29.95 "Hg10 mi
8:53 AM46 °FMostly cloudy.12 mph46%29.96 "Hg10 mi
7:53 AM38 °FMostly cloudy.3 mph70%29.98 "Hg10 mi
6:53 AM35 °FPassing clouds.8 mph70%29.98 "Hg10 mi
5:53 AM36 °FClear.6 mph64%29.98 "Hg10 mi
4:53 AM35 °FClear.7 mph67%29.98 "Hg10 mi
3:53 AM35 °FClear.No wind70%30.00 "Hg10 mi
2:53 AM34 °FClear.9 mph73%30.00 "Hg10 mi
Weather by CustomWeather, © 2014

See weather overview